Location: Betzi
(47.2343°N, 9.5260°E)
Time: 00:07:53
(UTC+00:00)

Lacrosse 5 - Pass Details

Date: 27 May 2022
Orbit: 714 x 724 km, 57.0° (Epoch: 09 March)

Event Time Altitude Azimuth Distance (km) Brightness Sun altitude
Exits shadow 00:07:00 27° 136° (SE) 1,359 3.0 -20.7°
Maximum altitude 00:07:26 28° 127° (SE) 1,347 3.0 -20.6°
Drops below altitude 10° 00:11:44 10° 69° (ENE) 2,216 4.8 -20.5°
Sets 00:14:24 0° 58° (ENE) 3,140 5.9 -20.4°
